FW5697 Weather Reports


Display with metric or nautical units.
time (UTC)temp
F
wind
direction
speed
MPH
gust
MPH
rain 1hr
in
rain 24hr
in
rain mn
in
humidity
%
barometer
mb
20260903093035 73 0 0.0 0.0 0.00 0.00 0.00 95 1017.0
20260903091533 73 0 0.0 0.0 0.00 0.00 0.00 95 1016.9
20260903090036 73 0 0.0 0.0 0.00 0.00 0.00 95 1017.0
20260903084534 73 0 0.0 0.0 0.00 0.00 0.00 95 1017.2
20260903083038 73 0 0.0 0.0 0.00 0.00 0.00 95 1017.2
20260903081535 74 0 0.0 0.0 0.00 0.00 0.00 94 1017.1
20260903080036 74 0 0.0 0.0 0.00 0.00 0.00 94 1017.2
20260903074533 74 0 0.0 0.0 0.00 0.00 0.00 94 1017.1
20260903073035 74 0 0.0 0.0 0.00 0.00 0.00 94 1017.0
20260903071534 74 0 0.0 0.0 0.00 0.00 0.00 94 1017.1
20260903070037 74 0 0.0 0.0 0.00 0.00 0.00 94 1017.1
20260903064532 74 0 0.0 0.0 0.00 0.00 0.00 93 1017.0
20260903063102 75 0 0.0 0.0 0.00 0.00 0.00 93 1017.1
20260903061534 75 0 0.0 0.0 0.00 0.00 0.00 93 1017.2
20260903060034 75 0 0.0 0.0 0.00 0.00 0.00 93 1017.2
20260903054533 75 0 0.0 0.0 0.00 0.00 0.00 92 1017.1
20260903053033 75 0 0.0 0.0 0.00 0.00 0.00 92 1017.2
20260903051543 76 0 0.0 0.0 0.00 0.00 0.00 92 1017.3
20260903050050 76 0 0.0 0.0 0.00 0.00 0.00 91 1017.2
20260903044533 76 0 0.0 0.0 0.00 0.00 0.00 91 1017.2
20260903043033 76 0 0.0 0.0 0.00 0.00 0.00 91 1017.2
20260903041533 77 0 0.0 0.0 0.00 0.00 0.00 90 1017.2
20260903040038 77 0 0.0 0.0 0.00 0.00 0.00 90 1017.2
20260903034535 77 0 0.0 0.0 0.00 0.00 0.00 89 1017.3
20260903033037 77 0 0.0 0.0 0.00 0.00 0.00 89 1017.4
20260903031534 78 0 0.0 0.0 0.00 0.00 0.00 89 1017.5
20260903030034 78 0 0.0 0.0 0.00 0.00 0.00 88 1017.6
20260903024535 78 0 0.0 0.0 0.00 0.00 0.00 87 1017.5
20260903023041 79 0 0.0 0.0 0.00 0.00 0.00 86 1017.5
20260903021535 79 0 0.0 0.0 0.00 0.00 0.00 85 1017.6
20260903020040 79 0 0.0 0.0 0.00 0.00 0.00 85 1017.5
20260903014536 80 0 0.0 0.0 0.00 0.00 0.00 84 1017.5
20260903013036 80 0 0.0 0.0 0.00 0.00 0.00 82 1017.2
20260903011552 81 0 0.0 0.0 0.00 0.00 0.00 81 1016.9
20260903010033 82 0 0.0 0.0 0.00 0.00 0.00 79 1016.7
20260903004532 82 0 0.0 0.0 0.00 0.00 0.00 76 1016.8
20260903003034 83 0 0.0 0.0 0.00 0.00 0.00 74 1016.6
20260903001536 84 0 0.0 0.0 0.00 0.00 0.00 73 1016.5
20260903000035 85 0 0.0 0.0 0.00 0.00 0.00 72 1016.4
20260902234541 86 0 0.0 0.0 0.00 0.00 0.00 67 1016.3
20260902233037 89 0 0.0 2.0 0.00 0.00 0.00 63 1016.3
20260902231547 90 0 0.0 0.0 0.00 0.00 0.00 61 1016.2
20260902230034 91 0 0.0 0.0 0.00 0.00 0.00 59 1016.1
20260902224546 92 0 0.0 0.0 0.00 0.00 0.00 54 1016.1
20260902223035 94 0 0.0 0.0 0.00 0.00 0.00 53 1016.3
20260902221536 95 0 0.0 0.0 0.00 0.00 0.00 52 1016.2
20260902220032 96 98 0.0 1.0 0.00 0.00 0.00 49 1016.2
20260902214535 97 0 0.0 1.0 0.00 0.00 0.00 48 1016.2
20260902213033 98 71 0.0 2.0 0.00 0.00 0.00 47 1016.3
20260902211545 97 0 0.0 2.0 0.00 0.00 0.00 47 1016.4
20260902210035 96 32 1.0 4.0 0.00 0.00 0.00 47 1016.5
20260902204535 97 0 0.0 3.0 0.00 0.00 0.00 48 1016.6
20260902203034 97 162 0.0 2.0 0.00 0.00 0.00 47 1016.7
20260902201538 96 38 1.0 4.0 0.00 0.00 0.00 48 1017.0
20260902200035 96 22 1.0 4.0 0.00 0.00 0.00 48 1017.1
20260902194540 96 36 1.0 3.0 0.00 0.00 0.00 48 1017.3
20260902193038 95 355 1.0 3.0 0.00 0.00 0.00 49 1017.4
20260902191537 95 148 0.0 3.0 0.00 0.00 0.00 50 1017.6
20260902190033 94 0 0.0 3.0 0.00 0.00 0.00 53 1017.7
20260902184546 93 0 0.0 0.0 0.00 0.00 0.00 53 1018.0
20260902183036 94 0 0.0 2.0 0.00 0.00 0.00 52 1018.0
20260902181533 95 0 0.0 4.0 0.00 0.00 0.00 50 1018.1
20260902180032 94 0 0.0 3.0 0.00 0.00 0.00 52 1018.3
20260902174534 93 332 1.0 3.0 0.00 0.00 0.00 56 1018.4
20260902173034 91 0 0.0 2.0 0.00 0.00 0.00 55 1018.6
20260902171534 92 22 1.0 5.0 0.00 0.00 0.00 56 1018.9
20260902170038 92 0 0.0 2.0 0.00 0.00 0.00 57 1019.0
20260902164534 91 5 1.0 3.0 0.00 0.00 0.00 56 1019.1
20260902163032 90 0 0.0 3.0 0.00 0.00 0.00 59 1019.2
20260902161549 90 275 0.0 4.0 0.00 0.00 0.00 61 1019.5
20260902160034 89 0 0.0 4.0 0.00 0.00 0.00 63 1019.5
20260902154535 88 0 0.0 3.0 0.00 0.00 0.00 65 1019.6
20260902153032 87 291 1.0 4.0 0.00 0.00 0.00 67 1019.7
20260902151537 86 44 1.0 3.0 0.00 0.00 0.00 71 1019.7
20260902150037 84 337 0.0 3.0 0.00 0.00 0.00 78 1019.7
20260902144537 83 0 0.0 2.0 0.00 0.00 0.00 80 1019.6
20260902143032 81 0 0.0 2.0 0.00 0.00 0.00 82 1019.6
20260902141537 80 0 0.0 2.0 0.00 0.00 0.00 85 1019.7
20260902140036 78 0 0.0 1.0 0.00 0.00 0.00 89 1019.7
20260902134538 76 0 0.0 0.0 0.00 0.00 0.00 93 1019.5
20260902133031 75 0 0.0 0.0 0.00 0.00 0.00 95 1019.5
20260902131533 74 0 0.0 0.0 0.00 0.00 0.00 97 1019.6
20260902130034 73 0 0.0 0.0 0.00 0.00 0.00 97 1019.6
20260902124532 72 0 0.0 0.0 0.00 0.00 0.00 97 1019.7
20260902123041 72 0 0.0 0.0 0.00 0.00 0.00 97 1019.6
20260902121535 71 0 0.0 0.0 0.00 0.00 0.00 97 1019.5
20260902120036 71 0 0.0 0.0 0.00 0.00 0.00 97 1019.2
20260902114539 71 0 0.0 0.0 0.00 0.00 0.00 97 1019.1
20260902113035 71 0 0.0 0.0 0.00 0.00 0.00 96 1019.1
20260902111532 71 0 0.0 0.0 0.00 0.00 0.00 96 1019.0
20260902110034 71 0 0.0 0.0 0.00 0.00 0.00 96 1018.9
20260902104546 71 0 0.0 0.0 0.00 0.00 0.00 96 1018.7
20260902103040 71 0 0.0 0.0 0.00 0.00 0.00 96 1018.6
20260902101531 72 0 0.0 0.0 0.00 0.00 0.00 96 1018.5
20260902100033 72 0 0.0 0.0 0.00 0.00 0.00 96 1018.4
20260902094533 72 0 0.0 0.0 0.00 0.00 0.00 96 1018.4